Flag for U.S.A. Weather past 2 weeks in New Orleans, Louisiana, U.S.A.

Now
79 °F

Clear.


Feels Like: 82 °F
Forecast: 74 / 85 °F
Wind: 7 mph from South

Location: Lakefront Airport

Current Time: May 29, 2015 at 1:51:14 AM

Latest Report: May 29, 2015 at 12:53 AM


Visibility: 10 mi

Pressure: 30.02 "Hg

Humidity: 74%

Dew point: 70 °F

Location of New OrleansLocation

Historic Weather in New Orleans — Graph

°F

New Orleans temperature yesterday

Maximum temperature yesterday: 89 °F (at 2:53 PM)
Minimum temperature yesterday: 76 °F (at 4:53 AM)
Average temperature yesterday: 83 °F

Past Weeks' High & Low Weather Summary

 TemperatureHumidityPressure
High90 °F (May 16, 1:53 PM)87% (May 26, 5:01 AM)30.20 "Hg (May 26, 5:01 AM)
Low70 °F (May 22, 7:53 AM)46% (May 28, 4:53 PM)29.94 "Hg (May 20, 5:53 PM)
Average81 °F70%30.07 "Hg
* Reported May 14 12:53 AM — May 29 12:53 AM, New Orleans, Weather by CustomWeather, © 2015

Note: Actual official high and low records may vary slightly from our data, if they occured in-between our weather recording intervals... More about our weather records

Advertising

New Orleans weather history for previous 24 hours

 ConditionsComfort  
Time TempWeatherWind HumidityBarometerVisibility
12:53 AM
Fri, May 29
79 °FClear.7 mph74%30.02 "Hg10 mi
11:53 PM
Thu, May 28
80 °FClear.8 mph74%30.04 "Hg10 mi
10:53 PM81 °FClear.9 mph74%30.05 "Hg10 mi
9:53 PM81 °FClear.10 mph77%30.06 "Hg10 mi
8:53 PM83 °FPartly sunny.12 mph72%30.05 "Hg10 mi
7:53 PM84 °FSunny.10 mph67%30.03 "Hg10 mi
6:53 PM86 °FSunny.13 mph55%30.02 "Hg10 mi
5:53 PM89 °FSunny.5 mph50%30.02 "Hg10 mi
4:53 PM89 °FSunny.5 mph46%30.03 "Hg10 mi
3:53 PM89 °FSunny.6 mph48%30.05 "Hg10 mi
2:53 PM89 °FSunny.9 mph50%30.06 "Hg10 mi
1:53 PM88 °FSunny.9 mph55%30.07 "Hg10 mi
12:53 PM86 °FSunny.9 mph63%30.09 "Hg10 mi
11:53 AM86 °FSunny.8 mph65%30.09 "Hg10 mi
10:53 AM85 °FScattered clouds.6 mph68%30.10 "Hg10 mi
10:00 AM84 °FSunny.3 mph67%30.12 "Hg10 mi
8:53 AM81 °FPartly sunny.3 mph74%30.10 "Hg10 mi
7:53 AM80 °FPartly sunny.N/A76%30.10 "Hg10 mi
6:53 AM77 °FClear.5 mph85%30.09 "Hg10 mi
5:53 AM78 °FClear.3 mph79%30.07 "Hg10 mi
4:53 AM76 °FClear.No wind82%30.06 "Hg10 mi
3:53 AM77 °FClear.No wind79%30.05 "Hg10 mi
2:53 AM77 °FClear.No wind82%30.06 "Hg10 mi
1:53 AM77 °FClear.No wind79%30.07 "Hg10 mi
Weather by CustomWeather, © 2015

See weather overviewHow to use our weather pages